KM5HG-3 Weather Reports


Display with metric or nautical units.
time (UTC)temp
F
wind
direction
speed
MPH
gust
MPH
rain 1hr
in
rain 24hr
in
rain mn
in
humidity
%
barometer
mb
20171020142030 60 152 5.0 8.0 0.00 0.00 0.00
20171020141529 60 146 4.0 7.0 0.00 0.00 0.00
20171020141029 59 149 4.0 7.0 0.00 0.00 0.00
20171020140531 59 141 5.0 8.0 0.00 0.00 0.00
20171020140029 58 129 6.0 9.0 0.00 0.00 0.00
20171020135529 58 138 6.0 9.0 0.00 0.00 0.00
20171020135029 57 132 4.0 6.0 0.00 0.00 0.00
20171020134529 55 138 0.0 3.0 0.00 0.00 0.00
20171020134033 55 167 0.0 1.0 0.00 0.00 0.00
20171020133529 54 0 0.0 0.0 0.00 0.00 0.00
20171020133029 54 0 0.0 0.0 0.00 0.00 0.00
20171020132529 54 0 0.0 0.0 0.00 0.00 0.00
20171020132029 53 0 0.0 0.0 0.00 0.00 0.00
20171020131529 53 0 0.0 0.0 0.00 0.00 0.00
20171020131029 53 0 0.0 0.0 0.00 0.00 0.00
20171020130531 53 0 0.0 0.0 0.00 0.00 0.00
20171020130029 52 0 0.0 0.0 0.00 0.00 0.00
20171020125529 52 0 0.0 0.0 0.00 0.00 0.00
20171020125029 51 0 0.0 0.0 0.00 0.00 0.00
20171020124532 51 0 0.0 0.0 0.00 0.00 0.00
20171020124029 51 0 0.0 0.0 0.00 0.00 0.00
20171020123530 50 0 0.0 0.0 0.00 0.00 0.00
20171020123029 50 0 0.0 0.0 0.00 0.00 0.00
20171020122529 50 0 0.0 0.0 0.00 0.00 0.00
20171020122029 50 0 0.0 0.0 0.00 0.00 0.00
20171020121530 51 0 0.0 0.0 0.00 0.00 0.00
20171020121033 51 0 0.0 0.0 0.00 0.00 0.00
20171020120529 51 0 0.0 0.0 0.00 0.00 0.00
20171020120029 51 0 0.0 0.0 0.00 0.00 0.00
20171020115529 51 0 0.0 0.0 0.00 0.00 0.00
20171020115032 51 0 0.0 0.0 0.00 0.00 0.00
20171020114532 50 0 0.0 0.0 0.00 0.00 0.00
20171020114029 50 0 0.0 0.0 0.00 0.00 0.00
20171020113635 50 0 0.0 0.0 0.00 0.00 0.00
20171020113529 50 0 0.0 0.0 0.00 0.00 0.00
20171020113030 50 0 0.0 0.0 0.00 0.00 0.00
20171020112529 49 0 0.0 0.0 0.00 0.00 0.00
20171020112030 50 0 0.0 0.0 0.00 0.00 0.00
20171020111532 50 0 0.0 0.0 0.00 0.00 0.00
20171020111029 49 0 0.0 0.0 0.00 0.00 0.00
20171020110529 50 0 0.0 0.0 0.00 0.00 0.00
20171020110029 50 0 0.0 0.0 0.00 0.00 0.00
20171020105529 49 0 0.0 0.0 0.00 0.00 0.00
20171020105029 49 0 0.0 0.0 0.00 0.00 0.00
20171020104529 49 0 0.0 0.0 0.00 0.00 0.00
20171020104029 49 0 0.0 0.0 0.00 0.00 0.00
20171020103529 48 0 0.0 0.0 0.00 0.00 0.00
20171020103029 49 0 0.0 0.0 0.00 0.00 0.00
20171020102529 50 0 0.0 0.0 0.00 0.00 0.00
20171020102029 50 0 0.0 0.0 0.00 0.00 0.00
20171020101529 51 0 0.0 0.0 0.00 0.00 0.00
20171020101029 52 0 0.0 0.0 0.00 0.00 0.00
20171020100530 52 0 0.0 0.0 0.00 0.00 0.00
20171020100031 50 0 0.0 0.0 0.00 0.00 0.00
20171020095529 51 0 0.0 0.0 0.00 0.00 0.00
20171020095029 51 0 0.0 0.0 0.00 0.00 0.00
20171020094536 51 0 0.0 0.0 0.00 0.00 0.00
20171020094031 51 0 0.0 0.0 0.00 0.00 0.00
20171020093531 51 0 0.0 0.0 0.00 0.00 0.00
20171020093031 51 0 0.0 0.0 0.00 0.00 0.00
20171020092530 52 0 0.0 0.0 0.00 0.00 0.00
20171020092031 50 0 0.0 0.0 0.00 0.00 0.00
20171020091531 50 0 0.0 0.0 0.00 0.00 0.00
20171020091129 52 0 0.0 0.0 0.00 0.00 0.00
20171020091031 52 0 0.0 0.0 0.00 0.00 0.00
20171020090540 52 0 0.0 0.0 0.00 0.00 0.00
20171020090031 51 0 0.0 0.0 0.00 0.00 0.00
20171020085531 49 0 0.0 0.0 0.00 0.00 0.00
20171020085031 49 0 0.0 0.0 0.00 0.00 0.00
20171020084030 51 0 0.0 0.0 0.00 0.00 0.00
20171020083718 51 0 0.0 0.0 0.00 0.00 0.00
20171020083535 51 0 0.0 0.0 0.00 0.00 0.00
20171020083032 52 0 0.0 0.0 0.00 0.00 0.00
20171020082531 51 0 0.0 0.0 0.00 0.00 0.00
20171020082032 52 0 0.0 0.0 0.00 0.00 0.00
20171020081531 52 0 0.0 0.0 0.00 0.00 0.00
20171020081034 52 0 0.0 0.0 0.00 0.00 0.00
20171020080530 52 0 0.0 0.0 0.00 0.00 0.00
20171020080029 54 201 0.0 2.0 0.00 0.00 0.00
20171020075530 54 181 1.0 2.0 0.00 0.00 0.00
20171020075030 55 156 2.0 3.0 0.00 0.00 0.00
20171020074533 56 131 2.0 3.0 0.00 0.00 0.00
20171020074030 55 174 2.0 2.0 0.00 0.00 0.00
20171020073530 55 179 2.0 3.0 0.00 0.00 0.00
20171020073033 55 166 2.0 3.0 0.00 0.00 0.00
20171020072531 55 159 3.0 4.0 0.00 0.00 0.00
20171020072031 55 177 3.0 3.0 0.00 0.00 0.00
20171020071530 55 162 3.0 3.0 0.00 0.00 0.00
20171020071033 55 156 3.0 3.0 0.00 0.00 0.00
20171020070532 55 160 1.0 4.0 0.00 0.00 0.00
20171020070031 54 0 0.0 0.0 0.00 0.00 0.00
20171020065531 54 0 0.0 0.0 0.00 0.00 0.00
20171020065037 54 0 0.0 0.0 0.00 0.00 0.00
20171020064533 52 0 0.0 0.0 0.00 0.00 0.00
20171020064030 52 0 0.0 0.0 0.00 0.00 0.00
20171020063529 52 0 0.0 0.0 0.00 0.00 0.00
20171020063030 52 0 0.0 0.0 0.00 0.00 0.00
20171020062530 52 0 0.0 0.0 0.00 0.00 0.00
20171020062030 52 0 0.0 0.0 0.00 0.00 0.00
20171020061530 51 0 0.0 0.0 0.00 0.00 0.00
20171020061030 51 0 0.0 0.0 0.00 0.00 0.00
20171020060530 51 0 0.0 0.0 0.00 0.00 0.00
20171020060030 52 0 0.0 0.0 0.00 0.00 0.00
20171020055530 51 0 0.0 0.0 0.00 0.00 0.00
20171020055035 52 0 0.0 0.0 0.00 0.00 0.00
20171020054612 53 0 0.0 0.0 0.00 0.00 0.00
20171020054532 53 0 0.0 0.0 0.00 0.00 0.00
20171020054030 53 0 0.0 0.0 0.00 0.00 0.00
20171020053533 53 0 0.0 0.0 0.00 0.00 0.00
20171020053032 53 0 0.0 0.0 0.00 0.00 0.00
20171020052530 52 0 0.0 0.0 0.00 0.00 0.00
20171020052030 53 0 0.0 0.0 0.00 0.00 0.00
20171020051530 55 0 0.0 0.0 0.00 0.00 0.00
20171020051029 55 0 0.0 0.0 0.00 0.00 0.00
20171020050530 54 0 0.0 0.0 0.00 0.00 0.00
20171020050030 55 0 0.0 0.0 0.00 0.00 0.00
20171020045530 56 0 0.0 0.0 0.00 0.00 0.00
20171020045033 56 0 0.0 0.0 0.00 0.00 0.00
20171020044533 55 0 0.0 0.0 0.00 0.00 0.00
20171020044031 55 0 0.0 0.0 0.00 0.00 0.00
20171020043031 56 0 0.0 0.0 0.00 0.00 0.00
20171020042543 55 0 0.0 0.0 0.00 0.00 0.00
20171020042034 55 0 0.0 0.0 0.00 0.00 0.00
20171020041530 53 0 0.0 0.0 0.00 0.00 0.00
20171020041030 54 0 0.0 0.0 0.00 0.00 0.00
20171020040530 53 0 0.0 0.0 0.00 0.00 0.00
20171020040030 54 0 0.0 0.0 0.00 0.00 0.00
20171020035531 53 0 0.0 0.0 0.00 0.00 0.00
20171020035034 53 0 0.0 0.0 0.00 0.00 0.00
20171020034534 54 0 0.0 0.0 0.00 0.00 0.00
20171020034035 54 0 0.0 0.0 0.00 0.00 0.00
20171020033530 55 0 0.0 0.0 0.00 0.00 0.00
20171020033033 56 0 0.0 0.0 0.00 0.00 0.00
20171020032531 58 0 0.0 0.0 0.00 0.00 0.00
20171020032033 59 96 1.0 5.0 0.00 0.00 0.00
20171020031531 57 0 0.0 0.0 0.00 0.00 0.00
20171020031030 58 0 0.0 0.0 0.00 0.00 0.00
20171020030530 59 0 0.0 0.0 0.00 0.00 0.00
20171020030032 59 0 0.0 0.0 0.00 0.00 0.00
20171020025536 58 0 0.0 0.0 0.00 0.00 0.00
20171020024537 59 142 0.0 1.0 0.00 0.00 0.00
20171020024032 61 156 1.0 3.0 0.00 0.00 0.00
20171020023533 61 0 0.0 0.0 0.00 0.00 0.00
20171020023030 60 0 0.0 0.0 0.00 0.00 0.00
20171020022533 61 0 0.0 0.0 0.00 0.00 0.00
20171020022029 61 0 0.0 0.0 0.00 0.00 0.00
20171020021530 62 0 0.0 0.0 0.00 0.00 0.00
20171020021032 62 125 0.0 2.0 0.00 0.00 0.00
20171020020530 64 152 2.0 3.0 0.00 0.00 0.00
20171020020034 64 139 2.0 4.0 0.00 0.00 0.00
20171020015536 63 155 2.0 3.0 0.00 0.00 0.00
20171020015031 64 148 1.0 4.0 0.00 0.00 0.00
20171020014531 64 0 0.0 0.0 0.00 0.00 0.00
20171020014032 64 131 1.0 4.0 0.00 0.00 0.00
20171020013530 64 143 1.0 2.0 0.00 0.00 0.00
20171020013030 65 155 0.0 3.0 0.00 0.00 0.00
20171020012530 65 138 1.0 4.0 0.00 0.00 0.00
20171020012030 66 138 2.0 3.0 0.00 0.00 0.00
20171020011531 65 138 2.0 4.0 0.00 0.00 0.00
20171020011030 66 131 2.0 5.0 0.00 0.00 0.00
20171020010533 66 124 2.0 4.0 0.00 0.00 0.00
20171020010032 66 136 3.0 5.0 0.00 0.00 0.00
20171020005530 66 132 3.0 6.0 0.00 0.00 0.00
20171020005034 67 131 4.0 5.0 0.00 0.00 0.00
20171020004537 67 115 4.0 5.0 0.00 0.00 0.00
20171020004031 67 135 3.0 5.0 0.00 0.00 0.00
20171020003532 68 128 4.0 5.0 0.00 0.00 0.00
20171020003033 68 134 3.0 6.0 0.00 0.00 0.00
20171020002531 68 142 3.0 5.0 0.00 0.00 0.00
20171020002038 68 148 4.0 5.0 0.00 0.00 0.00
20171020001532 69 122 4.0 6.0 0.00 0.00 0.00
20171020001031 69 139 4.0 7.0 0.00 0.00 0.00
20171020000530 69 141 4.0 7.0 0.00 0.00 0.00
20171019235530 69 134 3.0 5.0 0.00 0.00 0.00
20171019235036 69 124 3.0 6.0 0.00 0.00 0.00
20171019234532 69 131 2.0 4.0 0.00 0.00 0.00
20171019234031 69 125 3.0 4.0 0.00 0.00 0.00
20171019233530 70 136 3.0 5.0 0.00 0.00 0.00
20171019233030 70 132 2.0 3.0 0.00 0.00 0.00
20171019232532 72 128 1.0 3.0 0.00 0.00 0.00
20171019232031 72 145 0.0 2.0 0.00 0.00 0.00
20171019231530 72 136 2.0 3.0 0.00 0.00 0.00
20171019231030 72 127 3.0 5.0 0.00 0.00 0.00
20171019230532 73 127 4.0 5.0 0.00 0.00 0.00
20171019230030 74 117 3.0 5.0 0.00 0.00 0.00
20171019225530 73 127 4.0 6.0 0.00 0.00 0.00
20171019225030 73 114 4.0 5.0 0.00 0.00 0.00
20171019224532 74 129 5.0 7.0 0.00 0.00 0.00
20171019224030 75 131 6.0 8.0 0.00 0.00 0.00
20171019223530 76 111 6.0 9.0 0.00 0.00 0.00
20171019223030 77 125 7.0 9.0 0.00 0.00 0.00
20171019222547 79 132 6.0 9.0 0.00 0.00 0.00
20171019222030 80 128 5.0 7.0 0.00 0.00 0.00
20171019221530 80 139 5.0 7.0 0.00 0.00 0.00
20171019221032 80 129 4.0 6.0 0.00 0.00 0.00
20171019220530 78 141 4.0 6.0 0.00 0.00 0.00
20171019220030 77 141 5.0 9.0 0.00 0.00 0.00
20171019215534 77 129 6.0 8.0 0.00 0.00 0.00
20171019215030 78 163 6.0 10.0 0.00 0.00 0.00
20171019214531 79 148 6.0 10.0 0.00 0.00 0.00
20171019214030 79 155 6.0 9.0 0.00 0.00 0.00
20171019213530 78 150 7.0 11.0 0.00 0.00 0.00
20171019213030 78 127 7.0 9.0 0.00 0.00 0.00
20171019212530 78 118 6.0 10.0 0.00 0.00 0.00
20171019212030 80 146 6.0 10.0 0.00 0.00 0.00
20171019211530 79 132 8.0 12.0 0.00 0.00 0.00
20171019211031 79 118 8.0 12.0 0.00 0.00 0.00
20171019210531 79 132 8.0 11.0 0.00 0.00 0.00
20171019210030 80 155 7.0 10.0 0.00 0.00 0.00
20171019205530 79 145 7.0 9.0 0.00 0.00 0.00
20171019205030 79 120 7.0 11.0 0.00 0.00 0.00
20171019204532 79 127 6.0 9.0 0.00 0.00 0.00
20171019204030 80 141 5.0 8.0 0.00 0.00 0.00
20171019203530 79 132 5.0 8.0 0.00 0.00 0.00
20171019203029 80 132 7.0 10.0 0.00 0.00 0.00
20171019202529 79 136 8.0 12.0 0.00 0.00 0.00
20171019202029 80 143 7.0 10.0 0.00 0.00 0.00
20171019201530 82 180 6.0 10.0 0.00 0.00 0.00
20171019201029 81 180 7.0 11.0 0.00 0.00 0.00
20171019200529 83 207 6.0 10.0 0.00 0.00 0.00
20171019200029 84 180 4.0 11.0 0.00 0.00 0.00
20171019195533 84 179 5.0 9.0 0.00 0.00 0.00
20171019195030 85 179 4.0 10.0 0.00 0.00 0.00
20171019194531 80 191 7.0 12.0 0.00 0.00 0.00
20171019194029 83 195 6.0 10.0 0.00 0.00 0.00
20171019193529 81 128 6.0 9.0 0.00 0.00 0.00
20171019193029 80 128 6.0 10.0 0.00 0.00 0.00
20171019192530 80 128 5.0 10.0 0.00 0.00 0.00
20171019192030 79 134 6.0 9.0 0.00 0.00 0.00
20171019191529 82 184 4.0 7.0 0.00 0.00 0.00
20171019191030 80 184 5.0 9.0 0.00 0.00 0.00
20171019190529 80 183 4.0 7.0 0.00 0.00 0.00
20171019190029 78 194 6.0 8.0 0.00 0.00 0.00
20171019185538 78 181 7.0 10.0 0.00 0.00 0.00
20171019185033 77 162 7.0 11.0 0.00 0.00 0.00
20171019184534 79 208 7.0 10.0 0.00 0.00 0.00
20171019184035 77 159 9.0 12.0 0.00 0.00 0.00
20171019183534 76 141 7.0 12.0 0.00 0.00 0.00
20171019183042 77 138 7.0 10.0 0.00 0.00 0.00
20171019182532 78 169 6.0 10.0 0.00 0.00 0.00
20171019182034 76 160 7.0 11.0 0.00 0.00 0.00
20171019181532 77 153 7.0 11.0 0.00 0.00 0.00
20171019181035 77 181 6.0 9.0 0.00 0.00 0.00
20171019180533 77 183 6.0 11.0 0.00 0.00 0.00
20171019180036 78 183 5.0 8.0 0.00 0.00 0.00
20171019175531 76 186 7.0 10.0 0.00 0.00 0.00
20171019175045 76 150 7.0 10.0 0.00 0.00 0.00
20171019174534 75 142 8.0 12.0 0.00 0.00 0.00
20171019174036 76 146 8.0 12.0 0.00 0.00 0.00
20171019173532 78 152 6.0 10.0 0.00 0.00 0.00
20171019173040 77 152 7.0 11.0 0.00 0.00 0.00
20171019172533 77 146 7.0 12.0 0.00 0.00 0.00
20171019172043 76 212 6.0 10.0 0.00 0.00 0.00
20171019171532 75 162 7.0 11.0 0.00 0.00 0.00
20171019171033 75 218 6.0 9.0 0.00 0.00 0.00
20171019170533 76 152 6.0 10.0 0.00 0.00 0.00
20171019170032 75 190 5.0 9.0 0.00 0.00 0.00
20171019165532 74 197 7.0 11.0 0.00 0.00 0.00
20171019165033 74 187 6.0 10.0 0.00 0.00 0.00
20171019164534 73 177 6.0 12.0 0.00 0.00 0.00
20171019164035 73 158 7.0 10.0 0.00 0.00 0.00
20171019163534 74 197 7.0 9.0 0.00 0.00 0.00
20171019163034 73 191 7.0 11.0 0.00 0.00 0.00
20171019162545 72 167 9.0 13.0 0.00 0.00 0.00
20171019162033 73 186 9.0 13.0 0.00 0.00 0.00
20171019161537 73 183 7.0 13.0 0.00 0.00 0.00
20171019161032 72 153 8.0 14.0 0.00 0.00 0.00
20171019160531 71 187 8.0 14.0 0.00 0.00 0.00
20171019160034 71 184 9.0 13.0 0.00 0.00 0.00
20171019155533 71 208 7.0 13.0 0.00 0.00 0.00
20171019155037 71 204 6.0 10.0 0.00 0.00 0.00
20171019154531 70 180 6.0 9.0 0.00 0.00 0.00
20171019154031 68 150 6.0 12.0 0.00 0.00 0.00
20171019153531 68 191 5.0 9.0 0.00 0.00 0.00
20171019153030 68 148 6.0 10.0 0.00 0.00 0.00
20171019152531 67 141 7.0 10.0 0.00 0.00 0.00
20171019152031 67 201 7.0 10.0 0.00 0.00 0.00
20171019151531 67 150 6.0 10.0 0.00 0.00 0.00
20171019151034 67 163 4.0 8.0 0.00 0.00 0.00
20171019150536 67 150 5.0 9.0 0.00 0.00 0.00
20171019150032 67 207 3.0 7.0 0.00 0.00 0.00
20171019145533 66 150 5.0 8.0 0.00 0.00 0.00
20171019145031 65 153 5.0 8.0 0.00 0.00 0.00
20171019144531 64 160 5.0 8.0 0.00 0.00 0.00
20171019144031 63 159 5.0 8.0 0.00 0.00 0.00
20171019143531 63 153 4.0 7.0 0.00 0.00 0.00
20171019143031 62 134 4.0 7.0 0.00 0.00 0.00
20171019142531 64 200 2.0 4.0 0.00 0.00 0.00